Location: Unspecified
(54.1780°N, 0.0000°E)
Time: 19:12:02
(UTC+00:00)

Transit 2A - Visible Passes

Search period start: 07 August 2020 00:00
Search period end: 17 August 2020 00:00
Orbit: 591 x 967 km, 66.7° (Epoch: 07 August)

Date Brightness Start Highest point End Pass type
(mag) Time Alt. Az. Time Alt. Az. Time Alt. Az.
07 Aug 8.6 00:50:32 10° WNW 00:55:49 27° N 01:01:11 10° NE visible
07 Aug 8.5 02:35:17 10° NW 02:40:55 31° NNE 02:46:31 10° E visible
07 Aug 6.5 20:47:31 10° SSW 20:53:14 52° ESE 20:59:21 10° NE visible
07 Aug 7.3 22:30:44 10° WSW 22:36:38 52° NW 22:42:54 10° NE visible
08 Aug 8.5 00:15:57 10° WNW 00:21:18 28° NNW 00:26:46 10° NE visible
08 Aug 8.6 02:00:57 10° NW 02:06:26 29° NNE 02:11:54 10° ENE visible
08 Aug 7.0 21:56:20 10° WSW 22:02:20 62° NW 22:08:42 10° NE visible
08 Aug 8.4 23:41:21 10° WNW 23:46:48 30° NNW 23:52:24 10° NE visible
09 Aug 8.6 01:26:33 10° NW 01:31:55 27° N 01:37:18 10° ENE visible
09 Aug 7.7 03:10:31 10° NW 03:16:42 46° NNE 03:22:43 10° ESE visible
09 Aug 6.6 21:22:03 10° SW 21:28:04 76° NW 21:34:30 10° NE visible
09 Aug 8.2 23:06:45 10° W 23:12:19 33° NNW 23:18:05 10° NE visible
10 Aug 8.7 00:52:06 10° NW 00:57:24 27° N 01:02:43 10° ENE visible
10 Aug 8.0 02:36:18 10° NW 02:42:19 40° NNE 02:48:12 10° E visible
10 Aug 6.4 20:47:52 10° SW 20:53:52 88° SE 21:00:18 10° NE visible
10 Aug 8.0 22:32:11 10° W 22:37:53 37° NNW 22:43:49 10° NE visible
11 Aug 8.7 00:17:36 10° WNW 00:22:52 26° N 00:28:11 10° NE visible
11 Aug 8.2 02:02:03 10° NW 02:07:53 35° NNE 02:13:37 10° E visible
11 Aug 6.6 03:45:34 10° NW 03:52:03 83° NE 03:58:12 10° SE visible
11 Aug 6.4 20:13:47 10° SSW 20:19:44 71° SE 20:26:05 10° NE visible
11 Aug 7.8 21:57:38 10° WSW 22:03:29 43° NNW 22:09:34 10° NE visible
11 Aug 8.6 23:43:02 10° WNW 23:48:20 27° N 23:53:42 10° NE visible
12 Aug 8.4 01:27:46 10° NW 01:33:26 32° NNE 01:39:02 10° E visible
12 Aug 6.9 03:11:23 10° NW 03:17:48 68° NE 03:23:58 10° SE visible
12 Aug 7.5 21:23:10 10° WSW 21:29:07 50° NW 21:35:22 10° NE visible
12 Aug 8.6 23:08:27 10° WNW 23:13:49 28° N 23:19:15 10° NE visible
13 Aug 8.5 00:53:25 10° NW 00:58:56 29° NNE 01:04:25 10° ENE visible
13 Aug 7.2 02:37:11 10° NW 02:43:31 56° NE 02:49:37 10° ESE visible
13 Aug 7.1 20:48:46 10° WSW 20:54:48 60° NW 21:01:10 10° NE visible
13 Aug 8.5 22:33:50 10° WNW 22:39:19 30° NNW 22:44:54 10° NE visible
14 Aug 8.6 00:19:02 10° NW 00:24:27 28° N 00:29:49 10° ENE visible
14 Aug 7.5 02:02:59 10° NW 02:09:11 48° NE 02:15:11 10° ESE visible
14 Aug 6.5 03:46:28 10° NW 03:52:46 61° WSW 03:58:44 10° SSE visible
14 Aug 6.8 20:14:27 10° SW 20:20:32 73° NW 20:26:58 10° NE visible
14 Aug 8.3 21:59:14 10° W 22:04:50 33° NNW 22:10:34 10° NE visible
14 Aug 8.6 23:44:35 10° NW 23:49:55 27° N 23:55:13 10° ENE visible
15 Aug 7.8 01:28:46 10° NW 01:34:49 41° NNE 01:40:41 10° E visible
15 Aug 6.4 03:12:14 10° NW 03:18:40 77° SW 03:24:45 10° SSE visible
15 Aug 8.1 21:24:39 10° W 21:30:23 37° NNW 21:36:17 10° NE visible
15 Aug 8.6 23:10:05 10° WNW 23:15:23 26° N 23:20:41 10° NE visible
16 Aug 8.0 00:54:31 10° NW 01:00:24 36° NNE 01:06:08 10° E visible
16 Aug 6.5 02:38:02 10° NW 02:44:29 86° NE 02:50:37 10° SE visible
16 Aug 7.9 20:50:07 10° W 20:55:59 42° NNW 21:02:02 10° NE visible
16 Aug 8.6 22:35:33 10° WNW 22:40:51 27° N 22:46:12 10° NE visible
